Zurück zum Katalog

STARLINK-4600

AktivKommunikationVLEO
NORAD 53628·PAYLOAD·🇺🇸 United States

Gestartet Aug 28, 2022 von Cape Canaveral Space Force Station

Loading…

Nächste Überflüge (nächste 24 Stunden)

TLE

AktuellSource: CelesTrak SupGP

Epoche: Sep 14, 2026, 22:25 UTC

1 53628C 22104AS  26257.93451389  .00035724  00000+0  10225-2 0  2576
2 53628  53.1588  93.6365 0001317  83.7095 198.0950 15.35369844    13

Verfolge STARLINK-4600 in Echtzeit mit AllMySat

Download on the App Store